Regional Weather Roundup
Issued by NWS

Home | Current Version | Previous Version | Text Only | Print | Product List | Glossary On
Versions: 1 2 3 4 5 6 7 8 9 10 11 12 13 14 15 16 17 18 19 20 21 22 23 24 25 26 27 28 29 30 31 32 33 34 35 36 37 38 39 40 41 42 43 44 45 46 47 48 49 50
000
ASUS42 KKEY 051210
RWRKEY

FLORIDA REGIONAL WEATHER ROUNDUP FOR THE FLORIDA KEYS
NATIONAL WEATHER SERVICE KEY WEST FLORIDA
800 AM EDT WED AUG 05 2015

...SOUTH FLORIDA AND THE KEYS...

CITY           SKY/WX    TMP DP  RH WIND       PRES   REMARKS
FORT MYERS     SUNNY     78  76  93 SE3       30.08R
SW REGIONAL AP SUNNY     78  74  87 CALM      30.09R
NAPLES         SUNNY     81  76  84 NE6       30.08R
MIAMI          PTSUNNY   84  75  74 CALM      30.10R HX  92
WEST KENDALL   MOSUNNY   82  77  84 N5        30.09R HX  90
HOMESTEAD      SUNNY     84  77  79 E5        30.08R HX  94
MARATHON       MOSUNNY   86  78  77 VRB6      30.07R HX  98
BOCA CHICA NAS MOSUNNY   85  76  74 SE7       30.07R HX  94
KEY WEST INTL  SUNNY     85  74  69 SE8       30.07R HX  92

...INTERNATIONAL WEATHER...

CITY           SKY/WX    TMP DP  RH WIND       PRES   REMARKS
NASSAU BAHAMAS MOSUNNY   84  79  84 SE7       30.12R HX  96
CANCUN MEXICO  PTCLDY    81  77  89 E5        30.02R
COZUMEL MEXICO PTCLDY    72  72 100 CALM      30.02R

ADJACENT COASTAL WATERS...

STATION/POSITION TIME  SKY/WX   TEMP    WIND        PRES    WAVE
                                AIR SEA DIR/SP/G            HT/PER
                 (UTC)          (F)     (DEG/KT/KT) (MB)    (FT/S)
PULASKI SHOAL LI 1100            85     120/  7/  8 1017.5R
SAND KEY         1159            84     160/  9/ 10 1018.1R
SOMBRERO KEY     1200            85     120/ 10/ 11 1019.2R
LONG KEY         1100            85 88  130/  7/  8 1018.7R
MOLASSES REEF    1200            84 87  120/ 14/ 15 1018.5R
FOWEY ROCKS      NOT AVBL

$$



USA.gov is the U.S. government's official web portal to all federal, state and local government web resources and services.